Wind_Speed
42 40 38 38 37 37 36 36 35 33 32 32 31 31 31 30 28 26 25 26 26 26 26 27 27 26 27 26 26 26 25 24 24 23 22 22 22 22 23 24 26 25 24
42 41 40 39 39 38 38 37 37 36 35 35 35 35 35 33 32 30 28 28 28 28 27 29 29 29 29 29 27 26 25 24 23 23 23 23 24 25 24 25 27 27 26
40 39 38 37 36 37 36 36 36 36 36 36 36 37 37 36 34 33 31 30 30 30 30 31 32 32 31 31 30 28 26 24 24 24 24 24 25 25 26 26 27 29 28
37 35 34 33 33 33 33 34 34 35 36 37 38 38 39 38 36 36 35 34 33 33 33 32 32 33 32 32 32 30 28 27 26 25 25 25 26 26 27 28 28 29 30
33 32 31 30 30 30 31 32 33 34 36 37 37 38 38 39 38 38 38 37 36 36 36 35 34 34 33 32 32 31 29 27 26 25 25 25 26 27 27 28 29 29 29
30 31 31 31 31 31 31 32 33 34 36 37 38 38 39 40 40 41 40 39 38 37 37 36 36 35 34 32 31 31 30 29 27 26 25 26 27 28 28 28 29 29 28
33 32 32 32 33 33 33 34 35 36 37 38 39 39 39 40 41 42 42 40 40 39 37 37 36 36 35 33 33 32 31 29 27 26 26 26 28 29 29 29 29 29 28
34 33 33 33 34 34 34 35 36 37 38 38 38 38 38 39 40 40 41 40 40 40 39 39 38 36 35 34 34 33 30 29 28 27 26 27 28 28 29 29 28 28 28
30 31 31 32 32 33 33 34 35 36 36 36 35 36 36 37 38 38 39 39 39 39 39 37 35 34 35 35 34 31 28 28 27 26 27 27 28 28 28 28 28 27 25
23 25 26 27 28 29 30 31 32 32 31 31 31 31 32 33 35 35 34 36 36 36 36 36 34 34 34 34 30 25 24 25 25 25 26 26 26 26 26 26 26 25 24
16 17 18 19 21 22 23 23 23 24 24 24 25 26 26 27 29 29 30 30 31 32 33 33 31 29 27 24 22 21 21 22 22 23 23 24 24 24 25 25 24 24 23
9 9 8 9 11 12 12 14 14 14 15 15 16 17 18 20 21 23 23 24 24 23 23 21 20 19 18 17 17 18 20 21 21 22 22 23 23 23 23 24 23 23 23
1 3 3 2 2 2 3 4 3 4 5 7 7 8 9 10 10 11 11 11 11 11 12 12 11 12 14 15 17 18 19 20 21 21 22 22 22 22 23 23 23 22 22
8 7 6 5 4 4 5 5 5 5 4 3 1 0 0 0 1 1 2 3 4 5 7 8 10 12 13 15 16 18 19 21 21 21 22 22 22 22 22 23 22 22 21
14 14 12 12 10 10 11 10 10 9 9 8 7 7 6 5 4 3 2 3 5 6 8 10 11 13 14 16 18 19 20 21 22 22 21 21 21 21 22 22 22 22 22
18 18 17 16 15 14 13 12 11 11 10 9 9 8 7 6 5 5 5 6 7 9 11 12 13 14 16 18 20 21 22 22 22 22 22 21 21 21 21 21 21 22 22
21 20 19 17 16 15 14 13 12 11 10 9 9 8 7 6 7 7 8 9 11 12 13 15 16 17 19 20 22 23 23 23 23 23 22 21 21 21 21 21 21 21 21
20 19 18 17 16 15 14 13 12 12 11 11 10 10 10 10 10 10 10 11 13 14 15 17 18 20 21 22 23 24 24 24 24 23 22 21 20 20 20 20 20 20 20
19 19 18 17 17 16 16 15 14 14 13 13 12 12 12 12 12 12 12 13 14 16 17 19 20 21 22 23 23 23 24 24 24 23 22 21 20 20 20 19 19 19 19
19 19 18 18 18 17 17 16 16 16 16 16 15 15 15 14 14 14 14 14 14 15 16 18 19 20 21 22 22 23 23 23 22 21 21 20 20 20 19 18 17 17 16
19 19 19 19 19 18 18 18 18 18 18 18 18 18 17 17 17 17 17 17 16 16 15 16 16 17 17 18 19 19 20 20 20 19 18 18 18 18 17 16 15 14 13
18 18 19 19 19 19 19 19 19 19 20 20 20 20 20 20 20 20 20 19 18 17 15 14 13 13 13 14 14 14 15 16 16 16 15 15 15 15 15 14 13 12 11
17 17 18 18 19 19 20 20 20 20 20 21 22 22 22 22 22 21 22 21 20 18 17 16 14 13 12 12 12 11 11 11 12 12 12 12 13 13 14 13 12 11 10
16 16 17 17 18 18 18 19 19 20 20 21 22 22 23 23 23 22 23 24 22 21 20 18 17 15 14 12 11 9 7 7 7 7 7 8 10 11 12 11 10 9 8
14 15 16 16 16 17 17 18 19 19 20 20 21 22 22 23 24 24 24 25 25 23 23 22 21 19 17 14 12 9 6 2 1 3 5 6 7 8 9 8 8 6 5
13 14 14 15 15 16 17 17 18 19 19 20 21 21 22 23 24 24 25 26 26 26 26 26 25 24 22 20 17 14 12 10 8 8 8 7 7 7 7 6 5 5 3
Wind_Direction
266 266 266 267 268 269 270 271 273 272 273 273 274 276 277 277 277 279 280 279 278 277 275 273 271 267 263 263 265 267 266 266 267 268 271 275 279 281 284 286 286 283 283
266 266 264 265 265 267 268 269 270 271 271 270 272 273 274 275 276 275 277 277 278 278 278 274 271 269 264 262 263 266 264 263 264 265 269 274 276 278 280 282 284 283 283
265 264 263 262 262 263 265 266 267 268 269 269 269 270 271 272 273 274 275 276 277 279 279 280 274 269 265 261 261 261 261 260 261 262 267 271 275 277 280 280 281 283 282
263 261 259 258 258 259 261 263 265 267 269 270 270 269 269 269 273 274 276 279 279 280 282 285 282 277 272 265 261 260 258 258 259 261 266 270 274 277 279 281 281 281 282
258 257 256 256 256 258 260 262 264 267 270 271 272 272 270 270 271 273 274 277 279 281 282 284 285 280 276 267 260 257 257 256 257 261 266 270 274 277 280 282 281 281 281
256 256 255 256 257 258 261 263 266 268 270 271 272 271 270 269 269 269 271 274 278 282 283 284 283 280 274 268 260 255 253 254 256 260 265 270 275 278 280 281 282 283 282
258 257 257 257 258 260 263 266 268 269 270 271 271 270 269 268 267 268 269 271 275 278 283 283 280 276 269 264 257 253 252 254 257 261 266 270 275 278 280 281 282 283 283
259 257 257 259 260 262 264 266 268 270 271 271 270 269 267 265 265 265 268 271 273 275 280 281 278 273 267 259 254 252 251 253 257 262 266 271 275 278 280 282 282 282 283
259 257 257 258 260 262 264 267 268 269 269 268 267 266 264 262 261 263 265 267 271 275 278 278 272 266 261 255 252 248 249 254 258 263 267 271 274 277 279 281 281 282 282
257 257 257 258 260 263 265 266 267 268 267 266 265 264 261 259 259 262 264 266 268 272 272 271 267 262 255 251 247 244 250 256 260 265 268 270 273 276 278 279 280 281 281
253 254 259 261 262 264 265 266 267 266 264 263 261 260 258 258 258 259 261 262 263 266 266 265 258 254 250 247 244 246 252 258 262 265 267 270 273 275 277 277 279 279 279
246 255 262 262 265 267 265 265 265 264 262 259 257 256 255 256 259 260 259 259 258 259 257 254 249 245 244 244 249 254 258 259 261 264 267 269 271 273 274 274 276 277 277
207 204 217 242 257 264 274 265 266 265 262 259 257 254 254 256 256 253 248 244 244 242 238 236 241 248 252 255 257 259 261 261 263 265 267 268 269 270 271 272 273 274 275
66 78 88 109 105 80 77 75 71 73 62 60 75 70 359 294 241 233 259 254 249 246 244 246 253 258 262 263 264 264 264 265 266 266 267 267 267 268 269 269 271 271 272
62 66 72 76 78 75 72 67 63 63 61 61 62 54 46 39 27 7 328 301 280 269 267 261 261 264 266 268 269 268 266 265 265 266 267 268 269 268 268 268 269 270 270
62 63 63 63 63 63 62 60 56 55 56 55 51 45 37 25 10 352 329 312 296 287 280 275 271 268 266 266 265 266 266 267 267 267 268 268 269 269 269 268 268 270 270
56 57 57 57 56 55 55 54 52 49 46 42 37 30 19 4 346 331 318 307 298 292 285 280 276 274 272 269 268 268 269 268 268 268 268 268 269 270 269 268 269 269 270
53 53 53 53 54 53 51 50 49 45 40 34 26 18 8 358 347 335 323 312 303 296 291 286 282 278 275 273 272 271 270 269 268 268 267 267 267 266 266 265 266 268 269
51 51 50 50 49 49 49 48 45 41 36 31 26 19 11 4 355 344 333 322 311 301 295 289 285 280 277 275 273 270 268 267 266 265 264 262 260 260 260 261 262 265 267
50 49 47 48 48 48 48 47 45 43 40 37 33 27 22 16 8 360 350 340 328 315 305 297 290 285 280 276 273 271 268 266 264 263 260 258 257 256 257 259 260 262 265
48 47 49 50 50 50 50 49 48 45 43 39 34 29 24 19 13 7 0 353 345 335 324 312 303 296 290 284 278 273 269 265 263 260 257 254 253 252 251 252 253 256 260
49 50 50 51 51 51 51 50 48 46 42 38 33 29 26 22 18 14 10 6 1 357 352 343 330 317 308 299 292 284 274 267 262 258 254 251 247 242 238 242 246 250 255
50 51 51 52 53 52 50 48 46 43 39 35 31 28 25 23 21 20 18 15 12 10 7 4 357 348 337 325 313 300 287 273 263 255 248 242 238 232 229 233 236 242 247
51 52 52 53 52 50 49 45 42 38 35 32 29 28 27 26 25 24 23 22 21 20 18 15 10 4 357 350 343 331 310 289 268 248 233 221 218 218 220 222 226 232 241
54 54 53 52 49 47 43 39 36 34 32 30 28 29 29 28 28 28 28 28 29 29 28 26 23 21 17 14 12 11 11 13 152 179 185 186 190 193 198 204 210 221 238
54 52 50 48 44 40 37 34 32 31 30 29 30 30 30 29 30 31 32 34 35 35 35 34 35 34 34 37 42 49 60 74 91 108 124 137 147 156 165 171 182 197 216
Height
5865 5868 5870 5870 5871 5871 5872 5873 5873 5875 5875 5876 5876 5876 5876 5876 5877 5877 5877 5876 5876 5877 5878 5878 5878 5878 5879 5879 5880 5880 5881 5881 5882 5883 5883 5883 5883 5882 5882 5880 5879 5880 5880
5856 5857 5860 5861 5862 5863 5864 5865 5865 5866 5867 5868 5869 5869 5868 5868 5869 5870 5871 5871 5870 5870 5871 5872 5871 5872 5872 5873 5873 5874 5874 5875 5876 5877 5877 5878 5878 5877 5877 5876 5874 5873 5874
5845 5847 5849 5851 5853 5854 5855 5856 5857 5857 5858 5859 5860 5860 5859 5859 5860 5862 5863 5864 5864 5864 5864 5864 5864 5864 5865 5865 5866 5868 5868 5869 5870 5871 5872 5872 5872 5871 5871 5870 5869 5867 5868
5835 5837 5839 5842 5843 5845 5846 5847 5848 5848 5849 5849 5850 5851 5850 5849 5851 5853 5854 5855 5856 5856 5856 5856 5856 5856 5857 5858 5859 5860 5861 5862 5863 5864 5865 5865 5865 5865 5864 5864 5863 5862 5861
5826 5828 5830 5833 5834 5836 5837 5838 5839 5840 5840 5840 5840 5841 5841 5841 5843 5844 5845 5846 5847 5847 5847 5848 5848 5849 5849 5850 5851 5852 5854 5855 5856 5857 5858 5858 5859 5858 5858 5857 5856 5855 5855
5816 5819 5821 5824 5826 5827 5829 5830 5831 5831 5831 5832 5832 5832 5833 5833 5835 5835 5836 5837 5837 5838 5839 5839 5840 5840 5841 5842 5843 5844 5846 5848 5849 5850 5850 5851 5851 5851 5850 5850 5848 5848 5848
5808 5810 5813 5815 5817 5819 5820 5821 5821 5822 5822 5822 5823 5823 5824 5824 5825 5826 5826 5828 5829 5830 5830 5831 5831 5832 5833 5834 5835 5836 5838 5840 5841 5842 5843 5844 5844 5843 5843 5842 5841 5841 5841
5799 5801 5803 5805 5807 5809 5810 5811 5811 5812 5812 5812 5813 5813 5814 5815 5816 5817 5818 5819 5820 5821 5821 5822 5823 5823 5824 5825 5826 5828 5830 5832 5833 5835 5836 5836 5836 5836 5836 5835 5835 5834 5834
5790 5792 5794 5796 5798 5799 5800 5801 5801 5801 5802 5802 5803 5803 5804 5805 5807 5808 5809 5810 5811 5812 5813 5813 5813 5814 5815 5816 5818 5819 5821 5824 5826 5827 5828 5829 5829 5829 5828 5828 5828 5828 5828
5784 5785 5787 5788 5790 5791 5791 5792 5792 5792 5793 5793 5794 5794 5795 5797 5798 5800 5801 5802 5803 5804 5804 5805 5805 5806 5807 5808 5809 5811 5814 5816 5818 5819 5821 5821 5822 5822 5821 5821 5821 5821 5822
5780 5781 5782 5783 5784 5784 5784 5785 5785 5785 5785 5786 5787 5787 5788 5789 5791 5792 5793 5795 5796 5796 5797 5798 5798 5799 5800 5801 5803 5806 5808 5810 5811 5813 5814 5815 5815 5815 5815 5815 5815 5815 5816
5778 5779 5780 5780 5780 5780 5780 5781 5781 5781 5781 5781 5782 5782 5783 5784 5785 5786 5787 5788 5789 5790 5791 5791 5793 5794 5795 5797 5799 5801 5802 5804 5805 5806 5807 5808 5808 5809 5809 5809 5809 5810 5810
5778 5778 5779 5779 5779 5779 5779 5779 5779 5779 5779 5779 5779 5780 5780 5781 5782 5782 5783 5783 5784 5786 5787 5788 5789 5791 5792 5794 5795 5796 5797 5799 5800 5800 5801 5802 5803 5803 5803 5803 5804 5804 5804
5780 5779 5779 5780 5780 5780 5780 5780 5780 5780 5779 5779 5779 5780 5780 5780 5781 5781 5781 5782 5783 5785 5786 5786 5787 5788 5789 5790 5791 5792 5792 5793 5794 5794 5795 5796 5797 5797 5798 5798 5798 5798 5798
5784 5783 5783 5782 5782 5782 5782 5782 5782 5781 5781 5781 5781 5781 5781 5780 5781 5781 5781 5782 5782 5783 5784 5784 5785 5785 5786 5786 5786 5786 5787 5788 5788 5789 5789 5790 5791 5791 5792 5792 5792 5793 5793
5788 5787 5787 5786 5786 5785 5785 5785 5784 5784 5784 5783 5783 5782 5782 5782 5782 5781 5781 5781 5781 5781 5781 5781 5781 5781 5781 5780 5780 5780 5781 5781 5782 5783 5783 5784 5785 5785 5786 5786 5786 5787 5788
5793 5792 5791 5791 5790 5789 5788 5788 5787 5786 5786 5785 5784 5784 5783 5782 5782 5781 5780 5779 5778 5777 5777 5776 5776 5775 5775 5774 5774 5774 5774 5775 5775 5776 5777 5778 5779 5779 5780 5780 5781 5781 5782
5799 5797 5796 5794 5793 5792 5791 5790 5789 5789 5788 5787 5785 5784 5783 5782 5781 5779 5778 5776 5775 5773 5772 5770 5770 5769 5768 5767 5767 5767 5767 5767 5768 5769 5770 5772 5773 5773 5773 5774 5775 5776 5777
5803 5801 5800 5798 5797 5795 5794 5793 5792 5791 5789 5788 5786 5785 5783 5781 5779 5777 5775 5773 5771 5768 5766 5765 5763 5762 5761 5760 5760 5760 5760 5760 5761 5762 5763 5765 5765 5766 5767 5768 5770 5771 5772
5807 5805 5803 5802 5800 5798 5797 5796 5794 5793 5791 5789 5788 5786 5784 5781 5779 5776 5773 5770 5767 5764 5761 5759 5757 5755 5754 5753 5752 5752 5752 5752 5753 5754 5756 5757 5758 5760 5761 5763 5764 5766 5767
5811 5809 5807 5805 5804 5802 5801 5799 5797 5796 5794 5792 5789 5787 5784 5781 5778 5775 5771 5767 5763 5760 5756 5753 5751 5749 5747 5746 5745 5744 5744 5745 5746 5747 5749 5750 5752 5754 5755 5757 5759 5761 5762
5815 5813 5812 5810 5808 5806 5804 5803 5801 5799 5797 5795 5792 5789 5786 5782 5778 5774 5770 5766 5761 5757 5753 5750 5747 5744 5742 5740 5739 5738 5737 5738 5739 5740 5742 5744 5746 5748 5751 5753 5755 5757 5758
5820 5818 5816 5814 5813 5811 5809 5807 5805 5802 5800 5798 5795 5791 5788 5784 5779 5775 5771 5766 5762 5757 5753 5749 5745 5742 5739 5736 5734 5733 5732 5732 5733 5734 5736 5739 5741 5744 5746 5749 5752 5754 5755
5824 5822 5821 5819 5817 5815 5813 5811 5809 5806 5804 5801 5797 5794 5790 5786 5782 5778 5773 5768 5763 5759 5754 5749 5745 5741 5738 5734 5732 5730 5728 5728 5729 5730 5732 5734 5737 5740 5743 5746 5749 5751 5753
5828 5827 5825 5823 5821 5819 5817 5815 5812 5809 5807 5804 5800 5797 5793 5790 5785 5781 5776 5771 5766 5761 5756 5752 5747 5742 5738 5734 5730 5728 5726 5726 5727 5728 5731 5733 5736 5739 5742 5745 5747 5750 5751
5832 5830 5829 5827 5825 5823 5820 5818 5815 5812 5810 5807 5803 5800 5797 5793 5789 5785 5780 5776 5770 5765 5760 5755 5750 5745 5740 5735 5732 5730 5728 5728 5729 5730 5732 5734 5737 5740 5742 5745 5747 5749 5750